[Iaude] MPEC V50: 2023 VF1 [a=2.13,e=0.86,i=5.1,H=19.6,PHA]
    mpec at marsden.cfa.harvard.edu 
    mpec at marsden.cfa.harvard.edu
       
    Sun Nov  5 11:57:36 EST 2023
    
    
  
M.P.E.C. 2023-V50                              Issued 2023 November 5, 16:56 UT
     The Minor Planet Electronic Circulars contain information on unusual
         minor planets, routine data on comets and natural satellites,
         and occasional editorial announcements.  They are published
    on behalf of Division F of the International Astronomical Union by the
          Minor Planet Center, Smithsonian Astrophysical Observatory,
                          Cambridge, MA 02138, U.S.A.
			  
             Prepared using the Tamkin Foundation Computer Network
                              MPC at CFA.HARVARD.EDU
            URL https://www.minorplanetcenter.net/    ISSN 1523-6714
                                    2023 VF1                                    
Observations:
     K23V01F* C2023 11 02.26487323 25 48.991-22 17 35.01         19.46wXEV050F51
     K23V01F  C2023 11 02.27518123 25 51.574-22 16 51.99         19.45wXEV050F51
     K23V01F  C2023 11 02.28549223 25 54.152-22 16 08.96         19.48wXEV050F51
     K23V01F  C2023 11 02.29578923 25 56.723-22 15 26.05         19.46wXEV050F51
     K23V01F  C2023 11 02.36326223 26 13.531-22 10 44.55         19.22GVEV050F51
     K23V01F  C2023 11 02.36407523 26 13.730-22 10 41.19         19.21GVEV050F51
     K23V01F 0B2023 11 02.80858 23 28 06.73 -21 40 16.7          19.5 VZEV050M49
     K23V01F 0B2023 11 02.82473 23 28 10.54 -21 39 12.4          19.4 VZEV050M49
     K23V01F 0B2023 11 02.84057 23 28 14.29 -21 38 09.5          19.5 VZEV050M49
     K23V01F KC2023 11 03.12297923 29 23.32 -21 20 00.0          19.2 GXEV050858
     K23V01F KC2023 11 03.12807723 29 24.50 -21 19 40.4          19.3 GXEV050858
     K23V01F KC2023 11 03.13196623 29 25.39 -21 19 25.3          19.1 GXEV050858
     K23V01F 1C2023 11 04.04799423 32 54.768-20 22 01.19         19.5 GVEV050W57
     K23V01F 1C2023 11 04.05574423 32 56.378-20 21 33.07         19.8 GVEV050W57
     K23V01F 1C2023 11 04.06518823 32 58.386-20 20 59.59         19.6 GVEV050W57
     K23V01F KC2023 11 04.13385323 33 13.58 -20 17 15.4          19.4 GXEV050858
     K23V01F KC2023 11 04.13850723 33 14.55 -20 16 58.9          19.4 GXEV050858
     K23V01F KC2023 11 04.14309823 33 15.51 -20 16 42.7          19.7 GXEV050858
     K23V01F 1C2023 11 04.17946723 33 23.144-20 14 32.46         19.21GVEV050703
     K23V01F 1C2023 11 04.18481923 33 24.354-20 14 13.85         19.78GVEV050703
     K23V01F KC2023 11 04.39094 23 34 08.39 -20 01 41.7          19.3 RqEV050E94
     K23V01F KC2023 11 04.40111 23 34 10.53 -20 01 06.6          19.3 RqEV050E94
     K23V01F KC2023 11 04.41126 23 34 12.58 -20 00 31.2          19.3 RqEV050E94
     K23V01F KC2023 11 04.42142 23 34 14.67 -19 59 54.8          19.4 RqEV050E94
Observer details:
703 Catalina Sky Survey.  Observer J. K. Hogan.  Measurers E. C. Beshore, D.
    Fay, J. B. Fazekas, D. C. Fuls, A. R. Gibbs, A. D. Grauer, H. Groeller, J.
    K. Hogan, R. A. Kowalski, S. M. Larson, G. J. Leonard, D. Rankin, R. L.
    Seaman, F. C. Shelly, K. W. Wierzchos.  0.68-m Schmidt + 10K CCD.
858 Tebbutt Observatory, Edgewood.  Observer F. B. Zoltowski.  0.51-m f/8.1
    Schmidt-Cassegrain + CCD.
E94 Possum Observatory, Gisborne.  Observer J. Drummond.  0.41-m f/4.5
    Newtonian + CCD.
F51 Pan-STARRS 1, Haleakala.  Observers J. Bulger, T. Lowe, P. Minguez, A.
    Schultz, I. Smith.  Measurers K. Chambers, T. de Boer, J. Fairlamb, H.
    Gao, M. Huber, C.-C. Lin, E. Magnier, Y. Ramanjooloo, R. Wainscoat, R.
    Weryk.  1.8-m Ritchey-Chretien + CCD.
M49 IAS Remote Observatory, Hakos.  Observers D. Husar, M. Junius.  Measurer
    D. Husar.  0.25-m f/4.5 reflector + CMO.
W57 ESA TBT La Silla Observatory.  Observers F. Ocana, M. Micheli, R.
    Kresken, L. Conversi.  Measurers F. Ocana, M. Micheli.  0.56-m f/2.52
    astrograph prime-focus corrector + 4K CCD.
Orbital elements:
2023 VF1                                            PHA, Earth MOID = 0.0054 AU
Epoch 2023 Sept. 13.0 TT = JDT 2460200.5                Bell                    
M   1.43832              (2000.0)            P               Q                  
n   0.31643727     Peri.  124.50331     -0.23409663     +0.96996561             
a   2.1327714      Node   131.81575     -0.91852690     -0.19838723             
e   0.8616356      Incl.    5.08607     -0.31860179     -0.14074521             
P   3.11           H   19.65          G   0.15           U   9                  
Residuals in seconds of arc
231102 F51  0.1+  0.1-    231102 M49  0.1-  0.1+    231104 858  0.2-  0.2+
231102 F51  0.1+  0.1-    231103 858  0.2-  0.2+    231104 858  0.2-  0.0
231102 F51  0.1+  0.1-    231103 858  0.1-  0.0     231104 703  0.9-  0.1+
231102 F51  0.1+  0.1-    231103 858  0.2-  0.1+    231104 703  0.5+  0.4-
231102 F51  0.1+  0.0     231104 W57  0.1-  0.1+    231104 E94  0.4-  0.2+
231102 F51  0.0   0.0     231104 W57  0.3-  0.4+    231104 E94  0.5+  0.3-
231102 M49  0.0   0.4+    231104 W57  0.1+  0.1-    231104 E94  0.1+  0.5-
231102 M49  0.2-  0.4+    231104 858  0.2-  0.3+    231104 E94  0.4+  0.4+
Ephemeris:
2023 VF1                 a,e,i = 2.13, 0.86, 5                   q = 0.2951
Date    TT    R. A. (2000) Decl.     Delta      r    Elong.  Phase     V
2023 10 06    13 49 27.1 -22 55 33   0.2806  0.7521    23.9   147.4    24.2
...
2023 10 21    20 51 12.4 -48 12 51   0.1700  1.0210    93.7    76.7    18.5
...
2023 10 29    23 01 43.6 -28 21 56   0.2789  1.1520   118.2    49.4    19.0
...
2023 11 04    23 32 44.0 -20 25 01   0.3863  1.2453   123.0    41.9    19.7
2023 11 05    23 36 14.2 -19 27 13   0.4052  1.2604   123.3    41.1    19.8
2023 11 06    23 39 27.1 -18 33 47   0.4243  1.2755   123.5    40.4    19.9
...
2023 11 12    23 54 33.4 -14 20 56   0.5424  1.3637   123.0    37.5    20.5
...
2023 11 20    00 08 41.8 -10 32 40   0.7075  1.4761   120.1    35.4    21.2
...
2023 12 05    00 28 38.4 -05 51 09   1.0344  1.6725   111.8    33.2    22.2
M. P. C. Staff               (C) Copyright 2023 MPC           M.P.E.C. 2023-V50
    
    
More information about the Iaude
mailing list